FW9064 Weather Reports


Display with metric or nautical units.
time (UTC)temp
F
wind
direction
speed
MPH
gust
MPH
rain 1hr
in
rain 24hr
in
rain mn
in
humidity
%
barometer
mb
20260510190237 78 86 1.0 2.0 0.00 0.00 0.00 71 1017.3
20260510185733 77 108 2.0 2.0 0.00 0.00 0.00 72 1017.4
20260510185232 77 108 0.0 1.0 0.00 0.00 0.00 73 1017.5
20260510184728 76 75 0.0 1.0 0.00 0.00 0.00 77 1017.6
20260510184225 77 107 0.0 1.0 0.00 0.00 0.00 75 1017.9
20260510183720 77 108 0.0 1.0 0.00 0.00 0.00 73 1017.6
20260510183215 77 129 0.0 1.0 0.00 0.00 0.00 72 1017.7
20260510182711 77 120 0.0 0.0 0.00 0.00 0.00 75 1017.8
20260510182207 76 112 0.0 1.0 0.00 0.00 0.00 74 1017.8
20260510181704 76 115 1.0 1.0 0.00 0.00 0.00 77 1017.6
20260510181201 75 125 1.0 1.0 0.00 0.00 0.00 77 1017.8
20260510180657 74 109 0.0 0.0 0.00 0.00 0.00 80 1018.0
20260510180155 73 140 1.0 1.0 0.00 0.00 0.00 80 1017.9
20260510175650 73 111 0.0 1.0 0.00 0.00 0.00 82 1018.0
20260510175147 73 92 0.0 0.0 0.00 0.00 0.00 83 1018.1
20260510174644 73 119 0.0 0.0 0.00 0.00 0.00 82 1018.1
20260510174142 72 107 0.0 0.0 0.00 0.00 0.00 83 1018.2
20260510173637 72 126 0.0 0.0 0.00 0.00 0.00 85 1018.3
20260510173134 71 111 0.0 0.0 0.00 0.00 0.00 86 1018.5
20260510172629 71 106 0.0 0.0 0.00 0.00 0.00 87 1018.7
20260510172126 70 110 0.0 0.0 0.00 0.00 0.00 88 1018.5
20260510171622 70 148 0.0 0.0 0.00 0.00 0.00 88 1018.6
20260510171120 69 138 1.0 1.0 0.00 0.00 0.00 89 1018.6
20260510170616 69 121 0.0 0.0 0.00 0.00 0.00 90 1018.7
20260510170113 69 112 0.0 0.0 0.00 0.00 0.00 89 1018.7
20260510165608 69 89 1.0 1.0 0.00 0.00 0.00 89 1018.8
20260510165104 69 97 0.0 0.0 0.00 0.00 0.00 88 1018.9
20260510164602 69 109 0.0 0.0 0.00 0.00 0.00 88 1018.9
20260510164058 69 110 0.0 0.0 0.00 0.00 0.00 89 1018.8
20260510163554 69 116 1.0 2.0 0.00 0.00 0.00 89 1018.7
20260510163051 69 109 0.0 1.0 0.00 0.00 0.00 89 1018.5
20260510162545 69 107 0.0 0.0 0.00 0.00 0.00 89 1018.4
20260510162042 70 111 0.0 0.0 0.00 0.00 0.00 87 1018.3
20260510161538 69 108 0.0 0.0 0.00 0.00 0.00 88 1018.5
20260510161035 70 105 0.0 0.0 0.00 0.00 0.00 89 1018.5
20260510160532 69 109 0.0 0.0 0.00 0.00 0.00 91 1018.7
20260510160031 69 115 1.0 1.0 0.00 0.00 0.00 90 1018.5
20260510155528 69 104 0.0 0.0 0.00 0.00 0.00 90 1018.3
20260510155025 68 109 0.0 0.0 0.00 0.00 0.00 92 1018.9
20260510154520 68 131 1.0 1.0 0.00 0.00 0.00 93 1018.6
20260510154021 68 114 0.0 1.0 0.00 0.00 0.00 94 1018.4
20260510153516 67 166 0.0 0.0 0.00 0.00 0.00 95 1018.7
20260510153013 67 109 0.0 0.0 0.00 0.00 0.00 95 1018.6
20260510152510 67 115 0.0 1.0 0.00 0.00 0.00 95 1018.7
20260510152006 67 138 1.0 1.0 0.00 0.00 0.00 95 1018.5
20260510151503 67 122 0.0 1.0 0.00 0.00 0.00 94 1018.8
20260510151001 67 108 0.0 0.0 0.00 0.00 0.00 95 1018.3
20260510150455 67 110 0.0 0.0 0.00 0.00 0.00 96 1018.6
20260510145952 67 109 0.0 0.0 0.00 0.00 0.00 97 1018.6
20260510145448 66 108 0.0 0.0 0.00 0.00 0.00 98 1018.5
20260510144945 66 109 0.0 0.0 0.00 0.00 0.00 98 1018.4
20260510144442 65 129 0.0 0.0 0.00 0.00 0.00 99 1018.4
20260510143937 65 111 0.0 0.0 0.00 0.00 0.00 99 1018.6
20260510143433 65 115 0.0 0.0 0.00 0.00 0.00 99 1018.7
20260510142931 65 101 0.0 0.0 0.00 0.00 0.00 99 1018.5
20260510142427 65 109 0.0 0.0 0.00 0.00 0.00 99 1018.5
20260510141923 65 107 0.0 0.0 0.00 0.00 0.00 99 1018.7
20260510141421 64 106 0.0 0.0 0.00 0.00 0.00 99 1018.6
20260510140918 65 106 0.0 0.0 0.00 0.00 0.00 99 1018.4
20260510140414 64 108 0.0 0.0 0.00 0.00 0.00 99 1018.6
20260510135913 64 107 0.0 0.0 0.00 0.00 0.00 99 1018.4
20260510135409 64 109 0.0 0.0 0.00 0.00 0.00 99 1018.2
20260510134907 64 106 0.0 0.0 0.00 0.00 0.00 99 1018.4
20260510134403 64 109 0.0 0.0 0.00 0.00 0.00 99 1018.2
20260510133859 64 107 0.0 0.0 0.00 0.00 0.00 99 1018.2
20260510133356 64 105 0.0 0.0 0.00 0.00 0.00 99 1018.3
20260510132851 64 108 0.0 0.0 0.00 0.00 0.00 99 1018.0
20260510132349 64 109 0.0 0.0 0.00 0.00 0.00 99 1018.2
20260510131846 64 110 0.0 0.0 0.00 0.00 0.00 99 1018.1
20260510131344 63 111 0.0 0.0 0.00 0.00 0.00 99 1018.1
20260510130840 63 111 0.0 0.0 0.00 0.00 0.00 99 1018.2
20260510130337 63 108 0.0 0.0 0.00 0.00 0.00 99 1018.1
20260510125834 63 109 0.0 0.0 0.00 0.00 0.00 99 1018.0
20260510125330 62 110 0.0 0.0 0.00 0.00 0.00 99 1018.2
20260510124827 62 109 0.0 0.0 0.00 0.00 0.00 99 1018.0
20260510124324 62 108 0.0 0.0 0.00 0.00 0.00 99 1018.0
20260510123819 62 108 0.0 0.0 0.00 0.00 0.00 99 1017.9
20260510123315 62 108 0.0 0.0 0.00 0.00 0.00 99 1017.8
20260510122812 61 108 0.0 0.0 0.00 0.00 0.00 99 1017.8
20260510122308 61 106 0.0 0.0 0.00 0.00 0.00 99 1017.8
20260510121804 61 108 0.0 0.0 0.00 0.00 0.00 99 1017.7
20260510121302 61 108 0.0 0.0 0.00 0.00 0.00 99 1017.5
20260510120759 61 109 0.0 0.0 0.00 0.00 0.00 99 1017.5
20260510120255 60 108 0.0 0.0 0.00 0.00 0.00 99 1017.4
20260510115751 60 109 0.0 0.0 0.00 0.00 0.00 99 1017.3
20260510115250 60 109 0.0 0.0 0.00 0.00 0.00 99 1017.2
20260510114749 60 109 0.0 0.0 0.00 0.00 0.00 99 1017.0
20260510114247 60 108 0.0 0.0 0.00 0.00 0.00 99 1017.1
20260510113742 60 112 0.0 0.0 0.00 0.00 0.00 99 1016.5
20260510113240 60 110 0.0 0.0 0.00 0.00 0.00 99 1016.9
20260510112736 60 109 0.0 0.0 0.00 0.00 0.00 99 1016.8
20260510112233 60 115 0.0 0.0 0.00 0.00 0.00 99 1016.7
20260510111728 59 110 0.0 0.0 0.00 0.00 0.00 99 1016.4
20260510111226 59 110 0.0 0.0 0.00 0.00 0.00 99 1016.3
20260510110725 59 111 0.0 0.0 0.00 0.00 0.00 99 1016.4
20260510110224 59 110 0.0 0.0 0.00 0.00 0.00 99 1016.3
20260510105723 59 109 0.0 0.0 0.00 0.00 0.00 99 1015.9
20260510105218 59 109 0.0 0.0 0.00 0.00 0.00 99 1016.0
20260510104715 59 108 0.0 0.0 0.00 0.00 0.00 99 1016.1
20260510104212 59 109 0.0 0.0 0.00 0.00 0.00 99 1016.0
20260510103708 59 112 0.0 0.0 0.00 0.00 0.00 99 1015.6
20260510103205 59 109 0.0 0.0 0.00 0.00 0.00 99 1015.8
20260510102700 59 110 0.0 0.0 0.00 0.00 0.00 99 1015.5
20260510102156 58 109 0.0 0.0 0.00 0.00 0.00 99 1015.6
20260510101654 58 106 0.0 0.0 0.00 0.00 0.00 99 1015.4
20260510101152 58 110 0.0 0.0 0.00 0.00 0.00 99 1015.5
20260510100647 58 110 0.0 0.0 0.00 0.00 0.00 99 1015.3
20260510100145 58 109 0.0 0.0 0.00 0.00 0.00 99 1015.1
20260510095640 58 109 0.0 0.0 0.00 0.00 0.00 99 1015.5
20260510095136 58 111 0.0 0.0 0.00 0.00 0.00 99 1015.4
20260510094634 58 113 0.0 0.0 0.00 0.00 0.00 99 1015.1
20260510094130 57 110 0.0 0.0 0.00 0.00 0.00 99 1015.0
20260510093621 57 108 0.0 0.0 0.00 0.00 0.00 99 1014.8
20260510093119 57 108 0.0 0.0 0.00 0.00 0.00 99 1014.8
20260510092615 57 106 0.0 0.0 0.00 0.00 0.00 99 1015.0
20260510092115 57 111 0.0 0.0 0.00 0.00 0.00 99 1014.7
20260510091612 57 108 0.0 0.0 0.00 0.00 0.00 99 1014.5
20260510091108 56 111 0.0 0.0 0.00 0.00 0.00 99 1014.5
20260510090605 57 110 0.0 0.0 0.00 0.00 0.00 99 1014.5
20260510090101 57 110 0.0 0.0 0.00 0.00 0.00 99 1014.5
20260510085556 57 110 0.0 0.0 0.00 0.00 0.00 99 1014.5
20260510085052 57 108 0.0 0.0 0.00 0.00 0.00 99 1014.4
20260510084548 57 109 0.0 0.0 0.00 0.00 0.00 99 1014.3
20260510084045 57 109 0.0 0.0 0.00 0.00 0.00 99 1014.3
20260510083542 57 111 0.0 0.0 0.00 0.00 0.00 99 1014.1
20260510083038 57 111 0.0 0.0 0.00 0.00 0.00 99 1014.3
20260510082535 57 110 0.0 0.0 0.00 0.00 0.00 99 1014.1
20260510082030 57 110 0.0 0.0 0.00 0.00 0.00 99 1014.3
20260510081526 57 114 0.0 0.0 0.00 0.00 0.00 99 1014.2
20260510081022 57 112 0.0 0.0 0.00 0.00 0.00 99 1013.9
20260510080521 57 111 0.0 0.0 0.00 0.00 0.00 99 1014.1
20260510080018 57 110 0.0 0.0 0.00 0.00 0.00 99 1014.1
20260510075515 57 111 0.0 0.0 0.00 0.00 0.00 99 1014.1
20260510075012 58 114 0.0 0.0 0.00 0.00 0.00 99 1014.2
20260510074510 58 110 0.0 0.0 0.00 0.00 0.00 99 1014.2
20260510074005 58 109 0.0 0.0 0.00 0.00 0.00 99 1014.1
20260510073501 58 111 0.0 0.0 0.00 0.00 0.00 99 1014.3
20260510072958 58 110 0.0 0.0 0.00 0.00 0.00 99 1014.1
20260510072454 58 110 0.0 0.0 0.00 0.00 0.00 99 1014.2
20260510071950 58 110 0.0 0.0 0.00 0.00 0.00 99 1014.1
20260510071446 58 111 0.0 0.0 0.00 0.00 0.00 99 1014.1
20260510070945 58 111 0.0 0.0 0.00 0.00 0.00 99 1014.3
20260510070442 59 110 0.0 0.0 0.00 0.00 0.00 99 1014.3
20260510065937 58 110 0.0 0.0 0.00 0.00 0.00 99 1014.1
20260510065435 58 111 0.0 0.0 0.00 0.00 0.00 99 1014.1
20260510064930 58 111 0.0 0.0 0.00 0.00 0.00 99 1014.4
20260510064428 59 108 0.0 0.0 0.00 0.00 0.00 99 1014.5
20260510063925 58 109 0.0 0.0 0.00 0.00 0.00 99 1014.3
20260510063420 59 110 0.0 0.0 0.00 0.00 0.00 99 1014.9
20260510062919 59 110 0.0 0.0 0.00 0.00 0.00 99 1014.4
20260510062414 59 111 0.0 0.0 0.00 0.00 0.00 99 1014.6
20260510061909 59 110 0.0 0.0 0.00 0.00 0.00 99 1014.6
20260510061406 59 110 0.0 0.0 0.00 0.00 0.00 99 1014.6
20260510060902 59 109 0.0 0.0 0.00 0.00 0.00 99 1014.5
20260510060359 59 109 0.0 0.0 0.00 0.00 0.00 99 1014.5
20260510055855 59 110 0.0 0.0 0.00 0.00 0.00 99 1014.6
20260510055355 59 110 0.0 0.0 0.00 0.00 0.00 99 1014.5
20260510054848 59 111 0.0 0.0 0.00 0.00 0.00 99 1014.6
20260510054344 60 111 0.0 0.0 0.00 0.00 0.00 99 1014.8
20260510053839 60 111 0.0 0.0 0.00 0.00 0.00 99 1015.0
20260510053335 60 111 0.0 0.0 0.00 0.00 0.00 99 1014.7
20260510052832 60 110 0.0 0.0 0.00 0.00 0.00 99 1014.7
20260510052327 60 109 0.0 0.0 0.00 0.00 0.00 99 1014.6
20260510051824 60 111 0.0 0.0 0.00 0.00 0.00 99 1014.8
20260510051321 60 111 0.0 0.0 0.00 0.00 0.00 99 1014.6
20260510050818 60 110 0.0 0.0 0.00 0.00 0.00 99 1014.7
20260510050314 60 110 0.0 0.0 0.00 0.00 0.00 99 1014.9
20260510045811 61 112 0.0 0.0 0.00 0.01 0.01 99 1014.8
20260510045308 61 108 0.0 0.0 0.00 0.01 0.01 99 1014.6
20260510044805 61 110 0.0 0.0 0.00 0.01 0.01 99 1014.7
20260510044302 61 110 0.0 0.0 0.00 0.01 0.01 99 1014.6
20260510043758 61 109 0.0 0.0 0.00 0.01 0.01 99 1014.8
20260510043248 61 111 0.0 0.0 0.00 0.01 0.01 99 1014.8
20260510042746 61 110 0.0 0.0 0.00 0.01 0.01 99 1014.7
20260510042241 61 110 0.0 0.0 0.00 0.01 0.01 99 1014.7
20260510041738 61 110 0.0 0.0 0.00 0.01 0.01 99 1014.9
20260510041230 62 110 0.0 0.0 0.00 0.01 0.01 99 1014.7
20260510040727 62 111 0.0 0.0 0.00 0.01 0.01 99 1015.0
20260510040224 62 111 0.0 0.0 0.00 0.01 0.01 99 1014.9
20260510035719 62 110 0.0 0.0 0.00 0.01 0.01 99 1015.0
20260510035215 62 110 0.0 0.0 0.00 0.01 0.01 99 1014.9
20260510034711 62 110 0.0 0.0 0.00 0.01 0.01 99 1014.9
20260510034209 62 110 0.0 0.0 0.00 0.01 0.01 99 1014.9
20260510033705 62 111 0.0 0.0 0.00 0.01 0.01 99 1014.8
20260510033203 62 110 0.0 0.0 0.00 0.01 0.01 99 1014.9
20260510032659 63 110 0.0 0.0 0.00 0.01 0.01 99 1015.1
20260510032155 63 111 0.0 0.0 0.00 0.01 0.01 99 1014.9
20260510031649 63 111 0.0 0.0 0.00 0.01 0.01 99 1015.3
20260510031146 63 110 0.0 0.0 0.00 0.01 0.01 99 1014.8
20260510030641 64 110 0.0 0.0 0.00 0.01 0.01 99 1014.8
20260510030139 64 109 0.0 0.0 0.00 0.01 0.01 99 1014.8
20260510025636 64 108 0.0 0.0 0.00 0.01 0.01 99 1014.8
20260510025133 64 110 0.0 0.0 0.00 0.01 0.01 99 1015.0
20260510024629 64 110 0.0 0.0 0.00 0.01 0.01 99 1015.0
20260510024126 64 110 0.0 0.0 0.00 0.01 0.01 99 1014.7
20260510023622 64 109 0.0 0.0 0.00 0.01 0.01 99 1014.8
20260510023120 64 109 0.0 0.0 0.00 0.01 0.01 99 1014.8
20260510022619 64 108 0.0 0.0 0.00 0.01 0.01 99 1014.5
20260510022114 64 110 0.0 0.0 0.00 0.01 0.01 99 1014.5
20260510021610 64 108 0.0 0.0 0.00 0.01 0.01 99 1014.4
20260510021108 65 109 0.0 0.0 0.00 0.01 0.01 99 1014.5
20260510020602 65 109 0.0 0.0 0.00 0.01 0.01 98 1014.3
20260510020058 65 110 0.0 0.0 0.00 0.01 0.01 98 1014.3
20260510015554 65 110 0.0 0.0 0.00 0.01 0.01 98 1014.1
20260510015050 65 110 0.0 0.0 0.00 0.01 0.01 98 1014.1
20260510014546 65 110 0.0 0.0 0.00 0.01 0.01 98 1013.9
20260510014044 65 108 0.0 0.0 0.00 0.01 0.01 98 1013.9
20260510013538 66 108 0.0 0.0 0.00 0.01 0.01 98 1013.6
20260510013034 66 110 0.0 0.0 0.00 0.01 0.01 98 1013.6
20260510012528 66 110 0.0 0.0 0.00 0.01 0.01 98 1013.6
20260510012025 66 110 0.0 0.0 0.00 0.01 0.01 98 1013.9
20260510011524 66 110 0.0 0.0 0.00 0.01 0.01 98 1013.6
20260510011020 66 110 0.0 0.0 0.00 0.01 0.01 98 1013.6
20260510010517 66 110 0.0 0.0 0.00 0.01 0.01 97 1013.3
20260510010014 67 110 0.0 0.0 0.00 0.01 0.01 97 1013.2
20260510005510 67 110 0.0 0.0 0.00 0.01 0.01 97 1013.2
20260510005008 67 110 0.0 0.0 0.00 0.01 0.01 97 1013.2
20260510004505 67 108 0.0 0.0 0.00 0.01 0.01 96 1013.0
20260510004003 68 110 0.0 0.0 0.00 0.01 0.01 96 1013.2
20260510003459 68 110 0.0 0.0 0.00 0.01 0.01 95 1013.2
20260510002954 68 110 0.0 0.0 0.00 0.01 0.01 95 1013.0
20260510002451 68 110 0.0 0.0 0.00 0.01 0.01 94 1013.3
20260510001947 69 110 0.0 0.0 0.00 0.01 0.01 94 1013.2
20260510001445 69 111 0.0 0.0 0.00 0.01 0.01 94 1013.2
20260510000942 69 110 0.0 0.0 0.00 0.01 0.01 93 1013.1
20260510000440 70 110 0.0 0.0 0.00 0.01 0.01 92 1012.8
20260509235935 70 116 0.0 0.0 0.00 0.01 0.01 92 1012.4
20260509235432 70 111 0.0 0.0 0.00 0.01 0.01 93 1012.8
20260509234928 70 111 0.0 0.0 0.00 0.01 0.01 93 1012.5
20260509234425 70 111 0.0 0.0 0.00 0.01 0.01 93 1012.6
20260509233923 70 110 0.0 0.0 0.00 0.01 0.01 92 1012.5
20260509233420 70 109 0.0 0.0 0.00 0.01 0.01 91 1012.4
20260509232916 70 110 0.0 0.0 0.00 0.01 0.01 90 1012.2
20260509232414 71 111 0.0 0.0 0.00 0.01 0.01 90 1012.4
20260509231909 71 110 0.0 0.0 0.00 0.01 0.01 89 1012.6
20260509231407 71 111 0.0 0.0 0.00 0.01 0.01 89 1012.5
20260509230905 71 111 0.0 0.0 0.00 0.01 0.01 88 1012.3
20260509230401 72 111 0.0 0.0 0.00 0.01 0.01 88 1012.3
20260509225857 72 110 0.0 0.0 0.00 0.01 0.01 87 1012.2
20260509225354 72 110 0.0 0.0 0.00 0.01 0.01 86 1012.1
20260509224849 72 111 0.0 0.0 0.00 0.01 0.01 85 1012.1
20260509224346 73 112 0.0 0.0 0.00 0.01 0.01 85 1011.9
20260509223843 73 111 0.0 0.0 0.00 0.01 0.01 85 1011.9
20260509223339 73 110 0.0 0.0 0.00 0.01 0.01 85 1011.9
20260509222837 73 110 0.0 0.0 0.00 0.01 0.01 85 1012.0
20260509222332 73 110 0.0 0.0 0.00 0.01 0.01 85 1011.8
20260509221827 73 111 0.0 0.0 0.00 0.01 0.01 85 1011.8
20260509221325 73 110 0.0 0.0 0.00 0.01 0.01 84 1011.8
20260509220825 72 110 0.0 0.0 0.00 0.01 0.01 83 1011.7
20260509220321 72 111 0.0 0.0 0.00 0.01 0.01 83 1011.8
20260509215817 73 110 0.0 0.0 0.00 0.01 0.01 83 1011.9
20260509215314 74 110 0.0 0.0 0.00 0.01 0.01 80 1011.8
20260509214811 74 111 0.0 0.0 0.00 0.01 0.01 79 1011.6
20260509214308 73 111 0.0 0.0 0.00 0.01 0.01 80 1012.0
20260509213805 73 117 0.0 0.0 0.00 0.01 0.01 80 1011.9
20260509213300 73 110 0.0 0.0 0.00 0.01 0.01 80 1011.9
20260509212758 73 114 0.0 0.0 0.00 0.01 0.01 78 1011.7
20260509212255 74 109 0.0 0.0 0.00 0.01 0.01 79 1011.9
20260509211751 74 145 1.0 2.0 0.00 0.01 0.01 77 1011.8
20260509211247 75 113 0.0 0.0 0.00 0.01 0.01 78 1011.8
20260509210744 74 111 0.0 0.0 0.00 0.01 0.01 77 1011.7
20260509210242 75 120 0.0 1.0 0.00 0.01 0.01 77 1011.8
20260509205741 74 155 1.0 1.0 0.00 0.01 0.01 78 1011.6
20260509205236 74 122 0.0 1.0 0.00 0.01 0.01 76 1011.7
20260509204732 75 111 0.0 0.0 0.00 0.01 0.01 76 1011.4
20260509204229 75 109 0.0 0.0 0.00 0.01 0.01 76 1011.7
20260509203725 75 111 0.0 0.0 0.00 0.01 0.01 75 1011.6
20260509203223 75 111 0.0 0.0 0.00 0.01 0.01 75 1011.8
20260509202718 75 112 0.0 1.0 0.00 0.01 0.01 75 1011.9
20260509202214 75 110 0.0 0.0 0.00 0.01 0.01 73 1011.6
20260509201709 76 115 0.0 0.0 0.00 0.01 0.01 74 1011.7
20260509201206 76 129 0.0 0.0 0.00 0.01 0.01 73 1011.7
20260509200702 76 111 0.0 0.0 0.00 0.01 0.01 72 1011.8
20260509200157 75 111 0.0 0.0 0.00 0.01 0.01 74 1011.5
20260509195654 75 122 1.0 1.0 0.00 0.01 0.01 73 1011.8
20260509195149 75 135 0.0 1.0 0.00 0.01 0.01 74 1011.9
20260509194649 75 108 0.0 0.0 0.00 0.01 0.01 76 1011.9
20260509194146 75 113 0.0 0.0 0.00 0.01 0.01 74 1012.2
20260509193642 75 111 0.0 0.0 0.00 0.01 0.01 76 1012.0
20260509193138 75 83 0.0 1.0 0.00 0.01 0.01 77 1012.2
20260509192635 75 153 1.0 2.0 0.00 0.01 0.01 75 1012.2
20260509192129 75 105 0.0 0.0 0.00 0.01 0.01 75 1012.1
20260509191624 74 109 0.0 0.0 0.00 0.01 0.01 77 1012.2
20260509191121 75 109 0.0 1.0 0.00 0.01 0.01 77 1012.2
20260509190617 76 111 0.0 0.0 0.00 0.01 0.01 75 1012.0